{"data":{"norad_id":52373,"intl_designator":"2022-045AU","name":"STARLINK-3550","alt_names":[],"object_type":"PAYLOAD","status":"ACTIVE","operator":null,"country":"US","launch_date":"2022-04-29","launch_site_code":"AFETR","launch_vehicle":null,"mission":null,"orbit_class":"UNKNOWN","rcs_meters":null,"size_class":null,"mass_kg":null,"dimensions":null,"purposes":["comms"],"wikipedia_slug":null,"has_3d_model":false,"image_url":null,"decayed_at":null,"tle_current":{"epoch":"2026-09-19T23:03:52.327584Z","epoch_age_seconds":106216,"freshness":"FRESH","line1":"1 52373U 22045AU  26262.96102231  .00003460  00000+0  11353-3 0  9993","line2":"2 52373  53.1634  20.1704 0001006  75.3538 284.7576 15.34385745245483","mean_motion":15.34385745,"eccentricity":0.0001006,"inclination_deg":53.1634,"raan_deg":20.1704,"arg_perigee_deg":75.3538,"mean_anomaly_deg":284.7576,"bstar":0.00011353,"rev_number":24548,"period_min":93.84862996104,"perigee_km":462.05741660872,"apogee_km":463.43380218973,"semimajor_km":6840.8826093992,"source":"CELESTRAK","updated_at":"2026-09-20T09:00:40.029375Z"}}}